Regional Weather Roundup
Issued by NWS

Home | Current Version | Previous Version | Text Only | Print | Product List | Glossary On
Versions: 1 2 3 4 5 6 7 8 9 10 11 12 13 14 15 16 17 18 19 20 21 22 23 24 25 26 27 28 29 30 31 32 33 34 35 36 37 38 39 40 41 42 43 44 45 46 47 48 49 50
000
ASUS43 KMKX 302100
RWRWI

WISCONSIN REGIONAL WEATHER ROUNDUP
NATIONAL WEATHER SERVICE MILWAUKEE/SULLIVAN WI
400 PM CDT SUN APR 30 2017

NOTE: "FAIR" INDICATES FEW OR NO CLOUDS BELOW 12,000 FEET WITH NO
SIGNIFICANT WEATHER AND/OR OBSTRUCTIONS TO VISIBILITY.

WIZ001-002-006>008-014>016-023>028-302200-
NORTHWEST WISCONSIN

CITY           SKY/WX    TMP DP  RH WIND       PRES   REMARKS
SUPERIOR ARPT  CLOUDY    40  33  78 E15G21    30.04F WCI  31
ASHLAND        CLOUDY    43  29  57 NE13G25   30.03F
HAYWARD        LGT RAIN  41  34  76 NE20G29   29.96F
SIREN          CLOUDY    48  29  48 NE17G23   29.92F
CUMBERLAND     CLOUDY    43  32  65 NE20G28   29.91F
RICE LAKE      CLOUDY    49  34  56 N12G21    29.92S
CHETEK         CLOUDY    49  31  48 NE9G18    29.90F
LADYSMITH      CLOUDY    51  30  44 NE16      29.92F
EAU CLAIRE     NOT AVBL
MENOMONIE      CLOUDY    50  33  52 NE14      29.88F
NEW RICHMOND   CLOUDY    45  33  61 NE20G26   29.88F
OSCEOLA        CLOUDY    47  34  61 NE22      29.92F
$$

WIZ003>005-009-010-017-018-302200-
NORTH CENTRAL WISCONSIN

CITY           SKY/WX    TMP DP  RH WIND       PRES   REMARKS
MANITOWISH WTR NOT AVBL
ARBOR VITAE    CLOUDY    52  24  34 E8        29.92F
WOODRUFF       CLOUDY    52  24  34 E8        29.92F
RHINELANDER    CLOUDY    48  31  51 E14       29.93F
EAGLE RIVER    CLOUDY    50  20  30 E10       29.93F
LAND O LAKES   CLOUDY    51  19  28 NE9G20    29.95F
PHILLIPS       CLOUDY    50  28  42 NE10      29.91F
TOMAHAWK       CLOUDY    47  32  55 NE10      29.93S
MEDFORD        CLOUDY    47  34  62 E15       29.90R
MERRILL        CLOUDY    47  34  61 E14       29.92S
$$

WIZ029-030-035-036-043>047-302200-
CENTRAL WISCONSIN

CITY           SKY/WX    TMP DP  RH WIND       PRES   REMARKS
WAUSAU         CLOUDY    43  36  76 E14       29.91R
MOSINEE        CLOUDY    43  37  81 NE13      29.92R
MARSHFIELD     CLOUDY    44  36  73 NE16G23   29.87F
STEVENS POINT  CLOUDY    39  35  86 NE16      29.91S WCI  30
WAUPACA        CLOUDY    42  37  82 NE12G18   29.92F
WAUTOMA        CLOUDY    41  37  86 E13       29.89F
WISC RAPIDS    CLOUDY    42  37  82 E15       29.90F
CAMP DOUGLAS   CLOUDY    43  37  81 E17       29.86F
$$

WIZ011>013-019>022-031-037>040-048>050-302200-
NORTHEAST WISCONSIN

CITY           SKY/WX    TMP DP  RH WIND       PRES   REMARKS
ANTIGO         CLOUDY    42  35  76 E15       29.93S
SHAWANO        CLOUDY    40  37  86 NE17G24   29.95F WCI  32
OCONTO         CLOUDY    37  35  91 NE12G24   29.96F WCI  30
STURGEON BAY   CLOUDY    37  35  92 NE15G24   29.95F WCI  28
GREEN BAY      CLOUDY    40  38  93 NE18G30   29.92F WCI  31
MANITOWOC      NOT AVBL
APPLETON       CLOUDY    39  37  93 NE21G28   29.88F WCI  29
CLINTONVILLE   CLOUDY    37  34  87 NE14G24   29.93F WCI  29
OSHKOSH        CLOUDY    41  37  86 NE16G23   29.88F
$$

WIZ032>034-041-042-053>061-302200-
SOUTHWEST WISCONSIN

CITY           SKY/WX    TMP DP  RH WIND       PRES   REMARKS
LA CROSSE      CLOUDY    46  39  76 NE15      29.82F
SPARTA         CLOUDY    44  39  83 NE14G20   29.86F
VIROQUA        CLOUDY    42  38  88 NE21      29.81F
BOSCOBEL       CLOUDY    46  39  76 E12G22    29.78F
PRAIRIE DU CHI CLOUDY    45  38  75 NE10      29.77F
PLATTEVILLE    CLOUDY    44  43  95 NE21G26   29.76F
$$

WIZ056-057-062-063-064-067-068-302200-
SOUTH CENTRAL WISCONSIN

CITY           SKY/WX    TMP DP  RH WIND       PRES   REMARKS
REEDSBURG      CLOUDY    41  40  95 NE13G22   29.84
BARABOO/DELLS  CLOUDY    41  38  88 NE13G22   29.84F
LONE ROCK      NOT AVBL
MINERAL POINT  CLOUDY    45  43  93 E15G22    29.77F
MADISON        CLOUDY    43  39  86 NE15      29.82F
MIDDLETON      CLOUDY    45  41  87 NE15G23   29.81F
WATERTOWN      CLOUDY    43  42  97 NE15G21   29.82F
MONROE         CLOUDY    43  43 100 NE13G21   29.78F
JANESVILLE     CLOUDY    46  45  93 E16G24    29.79R
$$

WIZ051-052-058>065-066-070>072-302200-
SOUTHEAST WISCONSIN

CITY           SKY/WX    TMP DP  RH WIND       PRES   REMARKS
MILWAUKEE      CLOUDY    42  40  92 NE17G28   29.84F
WAUKESHA       CLOUDY    39  37  93 NE12G23   29.86R WCI  32
MILWAUKEE/TIMM CLOUDY    39  37  93 NE17G29   29.86F WCI  30
RACINE         CLOUDY    42  40  92 NE14      29.85R
KENOSHA        CLOUDY    43  41  93 NE14      29.84S
FOND DU LAC    CLOUDY    41  37  86 NE13      29.88F
SHEBOYGAN      CLOUDY    40  38  93 NE25G31   29.88F WCI  29
WEST BEND      CLOUDY    41  39  93 NE14G21   29.86S
JUNEAU         CLOUDY    41  38  89 NE10      29.86F
$$

LSZ147-162-302200-
LAKE SUPERIOR

STATION/POSITION TIME  TEMP    WIND        PRES    WAVE
                       AIR SEA DIR/SP/G            HT/PER
                 (UTC) (F)     (DEG/KT/KT) (MB)    (FT/S)
DEVILS ISLAND    2000   38      50/ 22/ 24 1019.0F
PORT WING        2040   42      50/ 16/ 23 1017.3F
SAXON HARBOR     2040   40      60/ 19/ 24 1016.6F
$$

LMZ867-665-643>646-302200-
LAKE MICHIGAN

STATION/POSITION TIME  TEMP    WIND        PRES    WAVE
                       AIR SEA DIR/SP/G            HT/PER
                 (UTC) (F)     (DEG/KT/KT) (MB)    (FT/S)
CHAMBERS ISLAND  2030   37      40/ 12/ 20 1015.2F
N MID LAKE BUOY  1950   36 37   60/ 21/ 25 1017.2F   5/ 6
NORTHPORT PIER   2030   37      60/ 21/ 26 1016.3S
KEWAUNEE LAKESHO 2030   38      40/ 19/ 26 1013.5F
SHEBOYGAN LAKESH 2000   39      30/ 25/ 28 1012.6F
PORT WASHINGTON  2040   41      30/ 17/ 25 1012.5F
MILWAUKEE LAKESH 2030   40      30/ 21/ 25   N/A
S MID LAKE BUOY  1950   41 41   30/ 17/ 19 1010.6R   4/ 5
KENOSHA   LAKESH 2000   41      30/ 22/ 26 1010.5
$$

TC  - TEMPERATURE IN CELSIUS
VSB - VISIBILITY IN STATUTE MILES
WCI - WIND CHILL INDEX
HX  - HEAT INDEX




USA.gov is the U.S. government's official web portal to all federal, state and local government web resources and services.